Погода в Гавриловке

Украина / Днепропетровская область     48°04′53″N   36°30′48″E
темп.,
°C
ветер,
м/с
пор.,
м/с
влажн.,
%
обл.,
%
осадки,
мм/ч
давл.,
гПа
погр.,
м
11 мая, вт
вт1100:00+8сз91689100 2.1 1013911
03:00+9ссз81590100 3.3 1012852
06:00+9ссв51094100 0.6 1012692
09:00+8ссв51089100 1.1 1013764
12:00+11св7963100 0.1 10141503
15:00+10ссв6967100 0.1 10141228
18:00+10ссв6973100 0.3 10141144
21:00+7ссв5890100 0.7 1014608
12 мая, ср
ср1200:00+6всв599297 0.3 1015466
03:00+7в5894100 0.8 1015532
06:00+7всв61195100 1.1 1015662
09:00+8в5786100 3.0 10151113
12:00+12юв566987 1.3 10141014
15:00+13ю466152 2.6 10141251
18:00+13ю586331 0.7 10141057
21:00+9ююв48952 1.9 1015171
13 мая, чт
чт1300:00+8ююв34960 0.1 101567
03:00+7вюв22950 0.1 101515
06:00+8всв239693 0.0 101574
09:00+13в34795 0.0 1015398
12:00+20юв45576 0.0 10141386
15:00+23юв4548100 0.0 10121865
18:00+21юв4661100 0.0 1012319
21:00+15вюв348599 0.0 101351
14 мая, пт
пт1400:00+14вюв4892100 0.0 1012139
03:00+14вюв4995100 0.5 1011175
06:00+14вюв39950 0.3 1011210
09:00+21ююв34755 0.4 1011510
12:00+25ююв335020 0.0 10111082
15:00+27ююв3442100 0.0 10111672
18:00+25юв3658100 0.0 1010145
21:00+21в2357100 0.1 101043
15 мая, сб
сб1500:00+16юв61087100 1.9 1011229
03:00+15юз228272 2.1 101015
06:00+14ююз34861 0.0 101184
09:00+20юз466522 0.0 1012594
12:00+23юз67513 0.0 10131427
15:00+24зюз68470 0.0 10122142
18:00
21:00+18юз377061 0.0 1013160